Location: ????? ???????
(25.7275°N, 32.5929°E)
Time: 12:12:09
(UTC+00:00)

Delta 2 Rocket - Pass Details

Date: 02 March 2021
Orbit: 890 x 1677 km, 26.4° (Epoch: 15 April)

Event Time Altitude Azimuth Distance (km) Brightness Sun altitude
Rises 17:51:49 0° 258° (WSW) 3,609 8.1 -27.8°
Reaches altitude 10° 17:54:30 10° 258° (WSW) 2,607 7.1 -28.4°
Enters shadow 18:00:14 78° 233° (SW) 906 3.8 -29.6°
